This is the latest recevied weather packets stored in our database for station/object OK0EK-11. If no packets are shown the sender has not sent any weather packets the latest 10 day(s).
| Time | Temp. | Humidity | Pressure | Rain* | Wind** | Luminosity | Snow |
|---|---|---|---|---|---|---|---|
| 1778189958 | 8.33° C | 96% | 1016.6 hPa | - | - | - | - |
| 1778189359 | 8.33° C | 95% | 1016.6 hPa | - | - | - | - |
| 1778188759 | 8.33° C | 93% | 1016.6 hPa | - | - | - | - |
| 1778188161 | 8.33° C | 89% | 1016.5 hPa | - | - | - | - |
| 1778187561 | 8.89° C | 85% | 1016.6 hPa | - | - | - | - |
| 1778186962 | 8.89° C | 83% | 1016.7 hPa | - | - | - | - |
| 1778186363 | 9.44° C | 81% | 1016.6 hPa | - | - | - | - |
| 1778185763 | 9.44° C | 79% | 1016.6 hPa | - | - | - | - |
| 1778185165 | 10° C | 78% | 1016.5 hPa | - | - | - | - |
| 1778184566 | 10° C | 79% | 1016.5 hPa | - | - | - | - |
| 1778183966 | 10° C | 78% | 1016.3 hPa | - | - | - | - |
| 1778183366 | 10.56° C | 75% | 1016.1 hPa | - | - | - | - |
| 1778182767 | 11.11° C | 73% | 1016 hPa | - | - | - | - |
| 1778182167 | 11.11° C | 72% | 1016.1 hPa | - | - | - | - |
| 1778181567 | 11.11° C | 71% | 1016 hPa | - | - | - | - |
| 1778180968 | 11.11° C | 70% | 1015.9 hPa | - | - | - | - |
| 1778180369 | 11.11° C | 69% | 1015.8 hPa | - | - | - | - |
| 1778179770 | 11.67° C | 68% | 1015.7 hPa | - | - | - | - |
| 1778179170 | 11.67° C | 67% | 1015.6 hPa | - | - | - | - |
| 1778178570 | 11.67° C | 67% | 1015.3 hPa | - | - | - | - |
| 1778177971 | 11.67° C | 68% | 1015.2 hPa | - | - | - | - |
| 1778177372 | 11.67° C | 68% | 1015.1 hPa | - | - | - | - |
| 1778176772 | 11.67° C | 68% | 1015 hPa | - | - | - | - |
| 1778176173 | 11.67° C | 67% | 1014.9 hPa | - | - | - | - |
| 1778175575 | 11.67° C | 68% | 1014.9 hPa | - | - | - | - |
* Rain since midnight (hover to see other rain measurements)
** Current wind speed in m/s (hover to see current wind gust speed)